When you browse on this site, cookies collect data to enhance your experience and personalize the content and advertising you see.
Visit our Privacy Policy to learn more. By continuing to use the site, you agree to this use of cookies and data.
  • In Hungary
  • List of Countries
  • For 7 days
  • Water Temperature
  • Satellite Maps
  • Weather Map
  • News
  • Weather Widgets
  • user-avatar
    Login

    Hourly Weather Vari

    Today, 14 December, Friday

    Time Temperature Precipitation Wind Pressure Humidity
    00:00 +10°C° 0 mm 1 mps 757 mmHg 86%
    01:00 +10°C° 0 mm 1 mps 757 mmHg 86%
    02:00 +10°C° 0 mm 1 mps 757 mmHg 85%
    03:00 +10°C° 0 mm 1 mps 757 mmHg 85%
    04:00 +10°C° 0 mm 1 mps 757 mmHg 86%
    05:00 +10°C° 0 mm 1 mps 757 mmHg 87%
    06:00 +10°C° 0 mm 1 mps 757 mmHg 87%
    07:00 +11°C° 0 mm 1 mps 757 mmHg 88%
    08:00 +11°C° 0 mm 1 mps 757 mmHg 88%
    09:00 +12°C° 0 mm 1 mps 757 mmHg 86%
    10:00 +13°C° 0 mm 1 mps 757 mmHg 84%
    11:00 +14°C° 0 mm 1 mps 758 mmHg 82%
    12:00 +15°C° 0 mm 1 mps 757 mmHg 80%
    13:00 +16°C° 0 mm 1 mps 757 mmHg 78%
    14:00 +16°C° 0 mm 2 mps 757 mmHg 77%
    15:00 +16°C° 0 mm 2 mps 757 mmHg 80%
    16:00 +16°C° 0 mm 2 mps 757 mmHg 83%
    17:00 +14°C° 0 mm 3 mps 756 mmHg 86%
    18:00 +14°C° 0.1 mm 3 mps 757 mmHg 86%
    19:00 +14°C° 0.1 mm 4 mps 757 mmHg 86%
    20:00 +14°C° 0.1 mm 4 mps 757 mmHg 86%
    21:00 +14°C° 0 mm 5 mps 757 mmHg 86%
    22:00 +14°C° 0 mm 5 mps 757 mmHg 85%
    23:00 +14°C° 0 mm 5 mps 757 mmHg 84%

    Tomorrow, 15 December, Saturday

    Time Temperature Precipitation Wind Pressure Humidity
    00:00 +14°C° 0 mm 5 mps 757 mmHg 84%
    01:00 +14°C° 0 mm 5 mps 756 mmHg 83%
    02:00 +14°C° 0 mm 4 mps 756 mmHg 83%
    03:00 +14°C° 0 mm 4 mps 756 mmHg 82%
    04:00 +14°C° 0 mm 4 mps 756 mmHg 82%
    05:00 +14°C° 0 mm 4 mps 756 mmHg 81%
    06:00 +14°C° 0 mm 4 mps 756 mmHg 80%
    07:00 +14°C° 0 mm 5 mps 756 mmHg 80%
    08:00 +14°C° 0 mm 5 mps 756 mmHg 79%
    09:00 +15°C° 0 mm 5 mps 756 mmHg 75%
    10:00 +16°C° 0 mm 5 mps 756 mmHg 71%
    11:00 +17°C° 0 mm 6 mps 756 mmHg 67%
    12:00 +17°C° 0.1 mm 6 mps 756 mmHg 66%
    13:00 +17°C° 0.1 mm 5 mps 755 mmHg 65%
    14:00 +17°C° 0.1 mm 5 mps 755 mmHg 65%
    15:00 +17°C° 0.2 mm 5 mps 754 mmHg 68%
    16:00 +17°C° 0.2 mm 4 mps 754 mmHg 71%
    17:00 +17°C° 0.2 mm 4 mps 754 mmHg 74%
    18:00 +15°C° 0.4 mm 4 mps 754 mmHg 75%
    19:00 +15°C° 0.4 mm 4 mps 754 mmHg 76%
    20:00 +15°C° 0.4 mm 4 mps 754 mmHg 77%
    21:00 +15°C° 0.8 mm 4 mps 754 mmHg 77%
    22:00 +15°C° 0.8 mm 4 mps 753 mmHg 78%
    23:00 +14°C° 0.8 mm 4 mps 753 mmHg 78%

    Day after tomorrow, 16 December, Sunday

    Time Temperature Precipitation Wind Pressure Humidity
    00:00 +14°C° 0.8 mm 4 mps 753 mmHg 78%
    01:00 +14°C° 0.8 mm 4 mps 752 mmHg 79%
    02:00 +14°C° 0.8 mm 3 mps 752 mmHg 80%
    03:00 +14°C° 1.2 mm 3 mps 752 mmHg 80%
    04:00 +14°C° 1.2 mm 3 mps 751 mmHg 80%
    05:00 +14°C° 1.2 mm 3 mps 751 mmHg 80%
    06:00 +14°C° 0.6 mm 2 mps 751 mmHg 80%
    07:00 +14°C° 0.6 mm 2 mps 751 mmHg 81%
    08:00 +14°C° 0.6 mm 2 mps 752 mmHg 82%
    09:00 +15°C° 0.4 mm 2 mps 752 mmHg 77%
    10:00 +16°C° 0.4 mm 2 mps 752 mmHg 73%
    11:00 +16°C° 0.4 mm 2 mps 752 mmHg 68%
    12:00 +17°C° 0.2 mm 2 mps 752 mmHg 66%
    13:00 +17°C° 0.2 mm 2 mps 751 mmHg 64%
    14:00 +17°C° 0.2 mm 3 mps 751 mmHg 62%
    15:00 +17°C° 0.2 mm 3 mps 751 mmHg 65%
    16:00 +16°C° 0.2 mm 3 mps 751 mmHg 68%
    17:00 +16°C° 0.2 mm 3 mps 751 mmHg 70%
    18:00 +14°C° 0.3 mm 3 mps 752 mmHg 72%
    19:00 +14°C° 0.3 mm 4 mps 753 mmHg 74%
    20:00 +14°C° 0.3 mm 4 mps 753 mmHg 76%
    21:00 +13°C° 0.1 mm 5 mps 754 mmHg 78%
    22:00 +13°C° 0.1 mm 5 mps 754 mmHg 79%
    23:00 +13°C° 0.1 mm 5 mps 755 mmHg 80%

    17 December, Monday

    Time Temperature Precipitation Wind Pressure Humidity
    00:00 +13°C° 0 mm 5 mps 755 mmHg 81%
    01:00 +13°C° 0 mm 5 mps 755 mmHg 82%
    02:00 +13°C° 0 mm 5 mps 756 mmHg 83%
    03:00 +13°C° 0 mm 5 mps 756 mmHg 83%
    04:00 +12°C° 0 mm 5 mps 756 mmHg 84%
    05:00 +12°C° 0 mm 5 mps 756 mmHg 85%
    06:00 +12°C° 0 mm 5 mps 757 mmHg 85%
    07:00 +12°C° 0 mm 4 mps 757 mmHg 85%
    08:00 +12°C° 0 mm 4 mps 757 mmHg 85%
    09:00 +13°C° 0 mm 4 mps 758 mmHg 82%
    10:00 +13°C° 0 mm 4 mps 758 mmHg 80%
    11:00 +14°C° 0 mm 3 mps 758 mmHg 77%
    12:00 +14°C° 0 mm 3 mps 758 mmHg 75%
    13:00 +14°C° 0 mm 3 mps 758 mmHg 74%
    14:00 +14°C° 0 mm 3 mps 757 mmHg 73%
    15:00 +15°C° 0 mm 2 mps 757 mmHg 75%
    16:00 +15°C° 0 mm 2 mps 757 mmHg 77%
    17:00 +14°C° 0 mm 1 mps 757 mmHg 79%
    18:00 +14°C° 0 mm 1 mps 758 mmHg 81%
    19:00 +14°C° 0 mm 1 mps 758 mmHg 83%
    20:00 +13°C° 0 mm 1 mps 758 mmHg 85%
    21:00 +13°C° 0 mm 1 mps 758 mmHg 86%
    22:00 +13°C° 0 mm 1 mps 758 mmHg 86%
    23:00 +12°C° 0 mm 1 mps 759 mmHg 87%

    18 December, Tuesday

    Time Temperature Precipitation Wind Pressure Humidity
    00:00 +12°C° 0 mm 1 mps 758 mmHg 87%
    01:00 +12°C° 0 mm 1 mps 758 mmHg 88%
    02:00 +12°C° 0 mm 1 mps 758 mmHg 88%
    03:00 +12°C° 0 mm 1 mps 758 mmHg 88%
    04:00 +12°C° 0 mm 2 mps 757 mmHg 89%
    05:00 +12°C° 0 mm 2 mps 757 mmHg 89%
    06:00 +13°C° 0.1 mm 2 mps 757 mmHg 89%
    07:00 +12°C° 0.1 mm 3 mps 757 mmHg 89%
    08:00 +12°C° 0.1 mm 3 mps 757 mmHg 88%
    09:00 +13°C° 0.5 mm 3 mps 756 mmHg 87%
    10:00 +13°C° 0.5 mm 3 mps 756 mmHg 86%
    11:00 +13°C° 0.5 mm 3 mps 756 mmHg 84%
    12:00 +13°C° 0.6 mm 3 mps 755 mmHg 84%
    13:00 +13°C° 0.6 mm 3 mps 755 mmHg 84%
    14:00 +13°C° 0.6 mm 3 mps 754 mmHg 83%
    15:00 +14°C° 0.8 mm 2 mps 754 mmHg 84%
    16:00 +14°C° 0.8 mm 2 mps 754 mmHg 85%
    17:00 +14°C° 0.8 mm 2 mps 754 mmHg 87%
    18:00 +13°C° 1.7 mm 2 mps 754 mmHg 87%
    19:00 +12°C° 1.7 mm 3 mps 754 mmHg 88%
    20:00 +12°C° 1.7 mm 3 mps 754 mmHg 88%
    21:00 +12°C° 2.3 mm 4 mps 754 mmHg 88%
    22:00 +10°C° 2.3 mm 5 mps 754 mmHg 88%
    23:00 +10°C° 2.3 mm 5 mps 755 mmHg 88%

    19 December, Wednesday

    Time Temperature Precipitation Wind Pressure Humidity
    00:00 +10°C° 1.4 mm 6 mps 755 mmHg 88%
    01:00 +10°C° 1.4 mm 7 mps 755 mmHg 87%
    02:00 +11°C° 1.4 mm 7 mps 755 mmHg 87%
    03:00 +11°C° 0.3 mm 8 mps 756 mmHg 86%
    04:00 +11°C° 0.3 mm 9 mps 756 mmHg 84%
    05:00 +11°C° 0.3 mm 10 mps 756 mmHg 83%
    06:00 +11°C° 0.2 mm 10 mps 757 mmHg 82%
    07:00 +9°C° 0.2 mm 11 mps 758 mmHg 81%
    08:00 +9°C° 0.2 mm 11 mps 759 mmHg 79%
    09:00 +9°C° 0 mm 11 mps 759 mmHg 76%
    10:00 +11°C° 0 mm 11 mps 760 mmHg 73%
    11:00 +11°C° 0 mm 10 mps 760 mmHg 70%
    12:00 +11°C° 0 mm 10 mps 760 mmHg 68%
    13:00 +11°C° 0 mm 9 mps 760 mmHg 67%
    14:00 +12°C° 0 mm 8 mps 759 mmHg 65%
    15:00 +11°C° 0 mm 8 mps 760 mmHg 68%
    16:00 +11°C° 0 mm 7 mps 760 mmHg 70%
    17:00 +10°C° 0 mm 6 mps 760 mmHg 73%
    18:00 +10°C° 0 mm 6 mps 761 mmHg 74%
    19:00 +10°C° 0 mm 6 mps 761 mmHg 75%
    20:00 +9°C° 0 mm 6 mps 761 mmHg 77%
    21:00 +9°C° 0 mm 5 mps 761 mmHg 77%
    22:00 +9°C° 0 mm 5 mps 762 mmHg 78%
    23:00 +9°C° 0 mm 5 mps 762 mmHg 79%
    Show more